Delaware, OH

7:47 PM EDT on July 27, 2017 (GMT -0400)
Delaware Municipal

Weather History for KDLZ - October, 2012

Change the Weather History Date:

Thursday, October 11, 2012

  Actual Average Record
Temperature  
Mean Temperature 44 °F -  
Max Temperature 59 °F 66 °F 85 °F (1954)
Min Temperature 28 °F 39 °F 19 °F (1964)
Degree Days  
Heating Degree Days 22    
Moisture  
Dew Point 30 °F    
Average Humidity 66    
Maximum Humidity 93    
Minimum Humidity 31    
Precipitation  
Precipitation 0.00 in - - ()
Sea Level Pressure  
Sea Level Pressure 30.22 in    
Wind  
Wind Speed 3 mph (SW)    
Max Wind Speed 13 mph    
Max Gust Speed 20 mph    
Visibility 10 miles    
Events      
Averages and records for this station are not official NWS values.
T = Trace of Precipitation, MM = Missing Value Source: NWS Daily Summary

Daily Weather History Graph

Daily Weather History Graph

Search for Another Location

Airport or City:

Trip Planner

Search our weather history database for the weather conditions in past years. The results will help you decide how hot, cold, wet, or windy it might be!

Date:

Astronomy

Oct. 11, 2012 Rise Set
Actual Time 7:39 AM EDT 6:57 PM EDT
Civil Twilight 7:12 AM EDT 7:25 PM EDT
Nautical Twilight 6:40 AM EDT 7:56 PM EDT
Astronomical Twilight 6:09 AM EDT 8:28 PM EDT
Moon 3:16 AM EDT (10/11) 4:34 PM EDT (10/11)
Length of Visible Light 12h 13m
Length of Day
11h 18m
Waning Crescent, 18% of the Moon is Illuminated
Oct 11
Waning Crescent
Oct 15
New
Oct 21
First Quarter
Oct 29
Full
Nov 6
Last Quarter

Hourly Weather History & Observations

Time (EDT) Temp. Windchill Dew Point Humidity Pressure Visibility Wind Dir Wind Speed Gust Speed Precip Events Conditions
12:15 AM 32.0 °F - 28.4 °F 87% 30.22 in 10.0 mi Calm Calm - N/A   Clear
12:36 AM 32.0 °F - 28.4 °F 87% 30.22 in 10.0 mi Calm Calm - N/A   Clear
12:55 AM 32.0 °F - 30.2 °F 93% 30.23 in 10.0 mi Calm Calm - N/A   Clear
1:15 AM 32.0 °F - 30.2 °F 93% 30.23 in 10.0 mi Calm Calm - N/A   Clear
1:55 AM 32.0 °F - 28.4 °F 87% 30.22 in 10.0 mi Calm Calm - N/A   Clear
2:15 AM 30.2 °F - 28.4 °F 93% 30.22 in 10.0 mi Calm Calm - N/A   Clear
2:36 AM 32.0 °F - 30.2 °F 93% 30.22 in 10.0 mi Calm Calm - N/A   Clear
2:55 AM 32.0 °F - 28.4 °F 87% 30.23 in 10.0 mi Calm Calm - N/A   Clear
3:15 AM 28.4 °F - 26.6 °F 93% 30.23 in 10.0 mi Calm Calm - N/A   Clear
3:36 AM 30.2 °F - 28.4 °F 93% 30.23 in 10.0 mi Calm Calm - N/A   Clear
3:55 AM 32.0 °F - 28.4 °F 87% 30.24 in 10.0 mi Calm Calm - N/A   Clear
4:15 AM 30.2 °F - 28.4 °F 93% 30.24 in 10.0 mi Calm Calm - N/A   Clear
4:36 AM 30.2 °F - 28.4 °F 93% 30.25 in 10.0 mi Calm Calm - N/A   Clear
4:55 AM 30.2 °F - 28.4 °F 93% 30.25 in 10.0 mi Calm Calm - N/A   Clear
5:16 AM 30.2 °F - 28.4 °F 93% 30.26 in 10.0 mi Calm Calm - N/A   Clear
5:36 AM 30.2 °F - 28.4 °F 93% 30.26 in 10.0 mi Calm Calm - N/A   Clear
5:55 AM 32.0 °F - 28.4 °F 87% 30.27 in 10.0 mi Calm Calm - N/A   Clear
6:16 AM 30.2 °F - 28.4 °F 93% 30.27 in 10.0 mi Calm Calm - N/A   Clear
6:36 AM 30.2 °F - 28.4 °F 93% 30.27 in 10.0 mi Calm Calm - N/A   Clear
6:55 AM 30.2 °F - 26.6 °F 86% 30.28 in 10.0 mi Calm Calm - N/A   Clear
7:16 AM 28.4 °F - 26.6 °F 93% 30.27 in 10.0 mi Calm Calm - N/A   Clear
7:36 AM 28.4 °F - 26.6 °F 93% 30.28 in 10.0 mi Calm Calm - N/A   Clear
7:55 AM 30.2 °F - 28.4 °F 93% 30.28 in 10.0 mi Calm Calm - N/A   Clear
8:16 AM 30.2 °F - 28.4 °F 93% 30.28 in 10.0 mi Calm Calm - N/A   Clear
8:36 AM 32.0 °F - 30.2 °F 93% 30.29 in 10.0 mi Calm Calm - N/A   Clear
8:55 AM 33.8 °F 30.8 °F 32.0 °F 93% 30.29 in 10.0 mi South 3.5 mph - N/A   Clear
9:16 AM 35.6 °F 32.8 °F 32.0 °F 87% 30.29 in 10.0 mi South 3.5 mph - N/A   Clear
9:36 AM 37.4 °F 32.8 °F 32.0 °F 81% 30.29 in 10.0 mi South 5.8 mph - N/A   Clear
9:55 AM 41.0 °F 37.1 °F 32.0 °F 70% 30.29 in 10.0 mi South 5.8 mph - N/A   Clear
10:16 AM 42.8 °F 38.6 °F 32.0 °F 66% 30.30 in 10.0 mi SSW 6.9 mph - N/A   Clear
10:36 AM 46.4 °F 41.9 °F 32.0 °F 57% 30.29 in 10.0 mi SSW 9.2 mph - N/A   Clear
10:55 AM 46.4 °F 41.9 °F 32.0 °F 57% 30.29 in 10.0 mi SSW 9.2 mph 16.1 mph N/A   Clear
11:16 AM 48.2 °F - 32.0 °F 54% 30.28 in 10.0 mi SSW 10.4 mph - N/A   Clear
11:35 AM 50.0 °F - 32.0 °F 50% 30.27 in 10.0 mi SSW 11.5 mph 16.1 mph N/A   Clear
11:55 AM 51.8 °F - 30.2 °F 44% 30.27 in 10.0 mi SSW 9.2 mph - N/A   Clear
12:16 PM 51.8 °F - 30.2 °F 44% 30.26 in 10.0 mi South 11.5 mph 17.3 mph N/A   Clear
12:35 PM 53.6 °F - 30.2 °F 41% 30.25 in 10.0 mi SW 8.1 mph 17.3 mph N/A   Clear
12:55 PM 53.6 °F - 30.2 °F 41% 30.24 in 10.0 mi WSW 9.2 mph - N/A   Clear
1:16 PM 53.6 °F - 30.2 °F 41% 30.23 in 10.0 mi SW 10.4 mph - N/A   Clear
1:55 PM 55.4 °F - 28.4 °F 36% 30.20 in 10.0 mi South 10.4 mph - N/A   Clear
2:16 PM 55.4 °F - 28.4 °F 36% 30.19 in 10.0 mi SSW 10.4 mph - N/A   Clear
2:35 PM 55.4 °F - 28.4 °F 36% 30.18 in 10.0 mi SW 6.9 mph 19.6 mph N/A   Clear
2:56 PM 57.2 °F - 26.6 °F 31% 30.18 in 10.0 mi SW 12.7 mph 19.6 mph N/A   Clear
3:16 PM 59.0 °F - 28.4 °F 31% 30.17 in 10.0 mi SW 10.4 mph 17.3 mph N/A   Clear
3:35 PM 59.0 °F - 28.4 °F 31% 30.17 in 10.0 mi SSW 10.4 mph - N/A   Clear
3:56 PM 59.0 °F - 28.4 °F 31% 30.16 in 10.0 mi SW 9.2 mph 16.1 mph N/A   Clear
4:16 PM 59.0 °F - 28.4 °F 31% 30.16 in 10.0 mi WSW 5.8 mph - N/A   Clear
4:35 PM 59.0 °F - 28.4 °F 31% 30.16 in 10.0 mi WSW 11.5 mph 18.4 mph N/A   Clear
4:56 PM 59.0 °F - 28.4 °F 31% 30.16 in 10.0 mi WSW 9.2 mph 16.1 mph N/A   Clear
5:16 PM 59.0 °F - 28.4 °F 31% 30.16 in 10.0 mi West 10.4 mph 17.3 mph N/A   Clear
6:16 PM 55.4 °F - 30.2 °F 38% 30.15 in 10.0 mi SW 9.2 mph - N/A   Clear
6:35 PM 53.6 °F - 30.2 °F 41% 30.14 in 10.0 mi SW 8.1 mph - N/A   Clear
6:56 PM 51.8 °F - 30.2 °F 44% 30.16 in 10.0 mi West 4.6 mph - N/A   Clear
7:16 PM 50.0 °F - 30.2 °F 47% 30.17 in 10.0 mi West 3.5 mph - N/A   Clear
7:35 PM 50.0 °F - 32.0 °F 50% 30.17 in 10.0 mi WSW 3.5 mph - N/A   Clear
7:56 PM 46.4 °F 44.3 °F 30.2 °F 53% 30.17 in 10.0 mi SSW 4.6 mph - N/A   Clear
8:16 PM 46.4 °F - 32.0 °F 57% 30.17 in 10.0 mi Calm Calm - N/A   Clear
8:35 PM 42.8 °F - 32.0 °F 66% 30.17 in 10.0 mi Calm Calm - N/A   Clear
8:56 PM 44.6 °F 43.1 °F 32.0 °F 61% 30.17 in 10.0 mi SSW 3.5 mph - N/A   Clear
9:15 PM 42.8 °F 41.1 °F 32.0 °F 66% 30.17 in 10.0 mi SSW 3.5 mph - N/A   Clear
9:35 PM 44.6 °F 43.1 °F 32.0 °F 61% 30.17 in 10.0 mi SSW 3.5 mph - N/A   Clear
9:56 PM 44.6 °F - 32.0 °F 61% 30.18 in 10.0 mi Calm Calm - N/A   Clear
10:15 PM 42.8 °F 40.1 °F 32.0 °F 66% 30.18 in 10.0 mi SSW 4.6 mph - N/A   Clear
10:56 PM 42.8 °F - 32.0 °F 66% 30.17 in 10.0 mi Calm Calm - N/A   Clear
11:56 PM 42.8 °F - 33.8 °F 70% 30.18 in 10.0 mi Calm Calm - N/A   Clear